カタログに戻る

SL-16 DEB

運用中SSO
NORAD 25402·DEBRIS·🇷🇺 Russia

打ち上げ Jul 10, 1998 から Baikonur Cosmodrome

Loading…

次のパス (今後24時間)

TLE

最新Source: Space-Track

元期: Sep 14, 2026, 15:46 UTC

1 25402U 98043J   26257.65750176 -.00000032  00000-0  79520-5 0  9990
2 25402  99.2215 318.0876 0153860 115.2976  45.5628 13.96981606435146

AllMySatでSL-16 DEBをリアルタイム追跡

Download on the App Store